Location: Écuvilly
(49.6505°N, 2.9206°E)
Time: 07:08:29
(UTC+00:00)

Cosmos 371 Rocket - Pass Details

Date: 17 November 2025
Orbit: 674 x 690 km, 74.0° (Epoch: 10 December)

Event Time Altitude Azimuth Distance (km) Brightness Sun altitude
Rises 18:05:42 0° 186° (S) 3,030 6.8 -19.6°
Reaches altitude 10° 18:08:02 10° 181° (S) 2,122 5.9 -20.0°
Maximum altitude 18:12:38 49° 107° (ESE) 883 3.4 -20.8°
Enters shadow 18:12:49 49° 98° (E) 887 3.4 -20.8°
